North Pole, Alaska, United States (99705)
Lat: 64.75N, Lon: 147.35W
Wx Zone: AKZ222
Local Info
Past Weather Observations for Friday, October 24, 2014

NOTE: This archive is for the closest National Weather Service station to North Pole. Information may differ from the station used for current weather conditions.

Click here for Long-term Archive

Time Weather Temperature Dewpoint Humidity Pressure Winds Precip Visibility
23:56
Overcast
21°F / -6°C 19°F / -7°C 93% 30.01 in
(1016 mb)
SSE 3.5 mph
(SSE 6 kph)
0.00 in
(0.00 mm)
10SM
23:51
Overcast
21°F / -6°C 18°F / -8°C 86% 30.01 in
(1016 mb)
Calm 0.00 in
(0.00 mm)
10SM
22:56
Overcast
Light Snow
23°F / -5°C 19°F / -7°C 86% 29.98 in
(1015 mb)
Calm 0.00 in
(0.00 mm)
3SM
22:30
Overcast
Light Snow
21°F / -6°C 19°F / -7°C 93% 29.98 in
(1015 mb)
Calm 0.00 in
(0.00 mm)
6SM
22:21
Overcast
Light Snow
21°F / -6°C 19°F / -7°C 93% 29.98 in
(1015 mb)
Calm 0.00 in
(0.00 mm)
9SM
22:18
Overcast
Light Snow
21°F / -6°C 19°F / -7°C 93% 29.98 in
(1015 mb)
Calm 0.00 in
(0.00 mm)
9SM
21:56
Overcast
Light Snow
21°F / -6°C 19°F / -7°C 93% 29.98 in
(1015 mb)
Calm 0.01 in
(0.25 mm)
6SM
20:56
Overcast
Light Snow
23°F / -5°C 19°F / -7°C 86% 29.98 in
(1015 mb)
S 3.5 mph
(S 6 kph)
0.00 in
(0.00 mm)
7SM
20:41
Overcast
Light Snow
23°F / -5°C 19°F / -7°C 86% 29.98 in
(1015 mb)
Calm 0.00 in
(0.00 mm)
4SM
20:18
Overcast
Light Snow
23°F / -5°C 21°F / -6°C 93% 29.95 in
(1014 mb)
SW 3.5 mph
(SW 6 kph)
0.00 in
(0.00 mm)
3SM
19:55
Overcast
Light Snow
25°F / -4°C 21°F / -6°C 86% 29.95 in
(1014 mb)
Calm - 3SM
18:55
Overcast
Light Snow
23°F / -5°C 21°F / -6°C 93% 29.95 in
(1014 mb)
Calm - 4SM
17:55
Overcast
Light Snow
25°F / -4°C 23°F / -5°C 93% 29.95 in
(1014 mb)
Calm - 2SM
16:55
Overcast
Light Snow
25°F / -4°C 23°F / -5°C 93% 29.92 in
(1013 mb)
Calm - 2SM
16:44
Overcast
Light Snow
25°F / -4°C 23°F / -5°C 93% 29.92 in
(1013 mb)
Calm - 2SM
16:24
Mostly Cloudy
Showers In Vicinity
25°F / -4°C 21°F / -6°C 86% 29.92 in
(1013 mb)
Calm - 7SM
15:55
Mostly Cloudy
Light Snow
25°F / -4°C 21°F / -6°C 86% 29.92 in
(1013 mb)
Calm - 5SM
15:43
Mostly Cloudy
Light Snow
27°F / -3°C 21°F / -6°C 80% 29.92 in
(1013 mb)
Calm - 4SM
14:55
Overcast
Light Snow
27°F / -3°C 23°F / -5°C 86% 29.92 in
(1013 mb)
Calm - 2SM
14:44
Overcast
Light Snow
27°F / -3°C 23°F / -5°C 86% 29.89 in
(1012 mb)
Calm - 2SM
14:03
Overcast
Light Snow
27°F / -3°C 21°F / -6°C 80% 29.89 in
(1012 mb)
Calm - 1 1/4SM
13:55
Overcast
Light Snow
27°F / -3°C 21°F / -6°C 80% 29.89 in
(1012 mb)
Calm - 2SM
12:55
Overcast
Light Snow
21°F / -6°C 21°F / -6°C 100% 29.89 in
(1012 mb)
Calm - 6SM
12:20
Mostly Cloudy
Snow Showers
23°F / -5°C 19°F / -7°C 86% 29.86 in
(1011 mb)
W 2.3 mph
(W 4 kph)
- 10SM
11:55
Mostly Cloudy
23°F / -5°C 19°F / -7°C 86% 29.86 in
(1011 mb)
SE 2.3 mph
(SE 4 kph)
- 13SM
10:55
Mostly Cloudy
23°F / -5°C 19°F / -7°C 86% 29.86 in
(1011 mb)
Calm - 25SM
09:55
Partly Cloudy
19°F / -7°C 16°F / -9°C 86% 29.83 in
(1010 mb)
Calm - 25SM
08:55
Mostly Cloudy
19°F / -7°C 18°F / -8°C 93% 29.83 in
(1010 mb)
Calm - 25SM
07:55
Mostly Cloudy
21°F / -6°C 18°F / -8°C 86% 29.83 in
(1010 mb)
Calm - 13SM
06:55
Mostly Cloudy
21°F / -6°C 18°F / -8°C 86% 29.8 in
(1009 mb)
ENE 2.3 mph
(ENE 4 kph)
- 10SM
05:55
Mostly Cloudy
21°F / -6°C 19°F / -7°C 93% 29.8 in
(1009 mb)
ENE 3.5 mph
(ENE 6 kph)
- 10SM
05:45
Mostly Cloudy
21°F / -6°C 19°F / -7°C 93% 29.8 in
(1009 mb)
ENE 2.3 mph
(ENE 4 kph)
- 10SM
05:11
Mostly Cloudy
Light Snow
23°F / -5°C 19°F / -7°C 86% 29.8 in
(1009 mb)
ENE 2.3 mph
(ENE 4 kph)
- 10SM
04:56
Overcast
Light Snow
23°F / -5°C 19°F / -7°C 86% 29.8 in
(1009 mb)
ENE 5.8 mph
(ENE 9 kph)
0.00 in
(0.00 mm)
10SM
04:20
Overcast
25°F / -4°C 19°F / -7°C 80% 29.8 in
(1009 mb)
ENE 3.5 mph
(ENE 6 kph)
- 10SM
03:56
Overcast
25°F / -4°C 19°F / -7°C 80% 29.8 in
(1009 mb)
E 4.6 mph
(E 7 kph)
- 10SM
02:56
Overcast
25°F / -4°C 19°F / -7°C 80% 29.8 in
(1009 mb)
ENE 3.5 mph
(ENE 6 kph)
0.00 in
(0.00 mm)
10SM
02:39
Overcast
Light Snow
25°F / -4°C 19°F / -7°C 80% 29.8 in
(1009 mb)
ENE 4.6 mph
(ENE 7 kph)
0.00 in
(0.00 mm)
10SM
01:56
Overcast
Light Snow
23°F / -5°C 19°F / -7°C 86% 29.8 in
(1009 mb)
ENE 3.5 mph
(ENE 6 kph)
0.00 in
(0.00 mm)
5SM
01:51
Overcast
Light Snow
23°F / -5°C 19°F / -7°C 86% 29.8 in
(1009 mb)
ENE 3.5 mph
(ENE 6 kph)
0.00 in
(0.00 mm)
5SM
00:56
Overcast
23°F / -5°C 19°F / -7°C 86% 29.8 in
(1009 mb)
ENE 3.5 mph
(ENE 6 kph)
- 10SM
Time Weather Temperature Dewpoint Humidity Pressure Winds Precip Visibility


Weather for websites

WeatherForYou.com, LLC is not responsible for any damages or problems caused by this service. Current weather conditions are obtained from the closest station including government and personal stations which may have varying degrees of accuracy. Weather forecasts are derived from the NOAA NDFD. Like all things, this site belongs to Jesus Christ... He just trusts me to maintain it. If you have any questions or comments email webmaster@weatherforyou.com

Copyright © 2014, WeatherForYou.com LLC. All rights reserved.